Regional Weather Roundup
Issued by NWS

Home | Current Version | Previous Version | Graphics & Text | Print | Product List | Glossary On
Versions: 1 2 3 4 5 6 7 8 9 10 11 12 13 14 15 16 17 18 19 20 21 22 23 24 25 26 27 28 29 30 31 32 33 34 35 36 37 38 39 40 41 42 43 44 45 46 47 48 49 50
460
ASUS45 KBOU 210707
RWRCO

WEATHER ROUNDUP FOR COLORADO
NATIONAL WEATHER SERVICE DENVER/BOULDER CO
100 AM MDT SAT OCT 21 2017

NOTE: "FAIR" INDICATES FEW OR NO CLOUDS BELOW 12000 FEET WITH NO
SIGNIFICANT WEATHER AND/OR OBSTRUCTIONS TO VISIBILITY.

COZ001>005-013-030-031-210800-
...NORTHWEST COLORADO...

CITY           SKY/WX    TMP DP  RH WIND       PRES   REMARKS
CRAIG          CLOUDY    33  29  85 SW6       29.96S WCI  28
HAYDEN         CLOUDY    31  30  96 SW6       29.96R WCI  25
MEEKER         CLOUDY    34  31  88 CALM      29.96R
RABBIT EARS PA LGT SNOW  21  19  93 MISG      29.91R VSB 3/4
STEAMBOAT SPGS CLOUDY    30  28  94 CALM      29.94R
WALDEN         NOT AVBL
$$

COZ006>008-011-210800-
...WEST CENTRAL VALLEYS...

CITY           SKY/WX    TMP DP  RH WIND       PRES   REMARKS
GRAND JUNCTION MOCLDY    49  22  34 W12       29.91R
MONTROSE       CLOUDY    48  24  39 NW20G32   29.91R
EAGLE          CLOUDY    39  32  76 NW3       29.94R
RIFLE          CLOUDY    42  36  79 CALM      29.92R
DELTA          CLOUDY    53  24  32 W14G21    29.88R
NUCLA          FAIR      50  19  29 NW15G21   29.94R
$$

COZ017>023-064>068-210800-
...SOUTHWEST COLORADO...

CITY           SKY/WX    TMP DP  RH WIND       PRES   REMARKS
DURANGO        CLOUDY    55  28  35 NW13G23   29.86R
CORTEZ         FAIR      52  29  41 N8        29.89R
PAGOSA SPRINGS RAIN      52  26  36 W15G26    29.88R
TELLURIDE      CLOUDY    37  36  98 CALM      29.99R
WOLF CREEK PAS NOT AVBL
$$

COZ009-010-012-014-032>034-037-058>063-210800-
...CENTRAL COLORADO...

CITY           SKY/WX    TMP DP  RH WIND       PRES   REMARKS
ASPEN          LGT SNOW  33  31  92 N13G22    29.92R FOG     WCI  24
BUENA VISTA    LGT RAIN  43  35  73 W18G26    29.81R
COPPER MTN     HVY SNOW  28  25  86 MISG      29.92R VSB 1/4
BERTHOUD PASS  HVY SNOW  19  10  68 NW33G46   29.89S VSB 1/4 WCI   0
COTTONWOOD PAS CLOUDY    41  36  81 W18G31    29.85R
GUNNISON       LGT RAIN  39  36  89 SW9       29.88R
KREMMLING      LGT SNOW  36  32  87 CALM      29.93R
LEADVILLE      HVY SNOW  31  30  96 NW18G25   29.87R VSB 1/4 WCI  19
MONARCH PASS   CLOUDY    28  27  93 MISG      29.94F
SALIDA         CLOUDY    47  39  74 W16G28    29.88R
SUNLIGHT       SNOW      23  21  93 MISG      29.98R VSB 1/2
WILKERSON PASS CLOUDY    32  28  86 SW13G33   29.88F WCI  22
$$

COZ069>075-210800-
...SAN LUIS VALLEY/SANGRE DE CRISTO MOUNTAINS...

CITY           SKY/WX    TMP DP  RH WIND       PRES   REMARKS
ALAMOSA        FAIR      50  30  46 SW15      29.80R
DEL NORTE      FAIR      48  28  46 SW13      29.79F
LA VETA PASS   FAIR      43  27  52 S26G58    29.95F
SAGUACHE       DRIZZLE   45  36  70 NW23G30   29.84R
$$

COZ035-036-038>040-210800-
...NORTHERN COLORADO FRONT RANGE...

CITY           SKY/WX    TMP DP  RH WIND       PRES   REMARKS
DENVER INTL AP MOCLDY    51  31  46 NE12      29.58R
DMNS CITY PARK   N/A     55  27  33 NE12      29.58R
AURORA         MOCLDY    56  27  33 N7        29.60R
FRONT RANGE AP FAIR      54  32  43 N8G21     29.60R
ERIE MUNI ARPT FAIR      57  32  37 CALM      29.61R
BOULDER MUN AP FAIR      59  32  36 SW21G32   29.56R
CENTENNIAL     MOCLDY    59  26  28 SW9       29.57F
BROOMFIELD     FAIR      59  30  33 CALM      29.59R
FORT COLLINS   FAIR      55  34  45 N18       29.57R
LONGMONT       FAIR      58  34  40 SE5       29.57R
$$

COZ041-046-047-076>085-087-088-210800-
...PIKES PEAK/PALMER DIVIDE AND SOUTHERN FOOTHILLS...

CITY           SKY/WX    TMP DP  RH WIND       PRES   REMARKS
COLO. SPRINGS  MOCLDY    59  26  28 S15       29.61F
A. F. ACADEMY  FAIR      60  23  24 SE5       29.61S
SCHRIEVER AFB  MOCLDY    56  23  28 SW8       29.62F
CHEYENNE MTN   FAIR      58  24  27 SE12G24   29.56F
ELLICOTT         N/A    N/A N/A N/A SW9       29.62F
FALCON         FAIR      56  22  27 S15       29.65F
FORT CARSON    FAIR      63  27  25 SW16G29   29.58F
LIMON          FAIR      55  26  32 W5        29.57S
MONUMENT HILL  FAIR      54  25  32 S9        29.67S
CANON CITY     FAIR      63  32  31 W15G23    29.61R
WALSENBURG     FAIR      64  30  27 SW25G38   29.65R
TRINIDAD       FAIR      61  27  27 SW12      29.68S
$$

COZ042>045-048>051-090-091-210800-
...NORTHEAST COLORADO...

CITY           SKY/WX    TMP DP  RH WIND       PRES   REMARKS
GREELEY ARPT   FAIR      51  30  44 NW28G35   29.56R
AKRON          FAIR      52  34  50 N25G32    29.57R
BURLINGTON     FAIR      58  33  39 S15       29.51F
WRAY           NOT AVBL
YUMA           FAIR      59  23  25 NW28G35   29.52R
STERLING       NOT AVBL
HOLYOKE        FAIR      52  43  71 W9        29.49R
FORT MORGAN    FAIR      51  30  45 N24G31    29.60R
$$

COZ086-089-092>099-210800-
...SOUTHEAST COLORADO...

CITY           SKY/WX    TMP DP  RH WIND       PRES   REMARKS
PUEBLO         FAIR      64  30  27 W10       29.56S
LA JUNTA       FAIR      64  34  32 S12       29.56F
LAMAR          FAIR      65  36  34 SW16      29.52F
SPRINGFIELD      N/A     55  42  61 S12       29.64S
$$




USA.gov is the U.S. government's official web portal to all federal, state and local government web resources and services.